When you browse on this site, cookies collect data to enhance your experience and personalize the content and advertising you see.
Visit our Privacy Policy to learn more. By continuing to use the site, you agree to this use of cookies and data.
  • In Hungary
  • List of Countries
  • For 7 days
  • Water Temperature
  • Weather Map
  • News
  • Weather Widgets
  • user-avatar
    Login

    Hourly Weather Stavok

    Today, 24 August, Saturday

    Time Temperature Precipitation Wind Pressure Humidity
    00:00 +15°C° 0 mm 2 mps 752 mmHg 77%
    01:00 +15°C° 0 mm 2 mps 752 mmHg 77%
    02:00 +14°C° 0 mm 2 mps 752 mmHg 77%
    03:00 +14°C° 0 mm 2 mps 752 mmHg 77%
    04:00 +14°C° 0 mm 2 mps 752 mmHg 78%
    05:00 +13°C° 0 mm 2 mps 752 mmHg 79%
    06:00 +15°C° 0 mm 2 mps 752 mmHg 76%
    07:00 +16°C° 0 mm 2 mps 752 mmHg 72%
    08:00 +18°C° 0 mm 2 mps 752 mmHg 69%
    09:00 +19°C° 0 mm 2 mps 752 mmHg 63%
    10:00 +21°C° 0 mm 2 mps 752 mmHg 57%
    11:00 +24°C° 0 mm 3 mps 752 mmHg 51%
    12:00 +24°C° 0 mm 2 mps 752 mmHg 49%
    13:00 +25°C° 0 mm 2 mps 752 mmHg 47%
    14:00 +25°C° 0 mm 2 mps 752 mmHg 45%
    15:00 +25°C° 0 mm 2 mps 751 mmHg 46%
    16:00 +25°C° 0 mm 2 mps 751 mmHg 47%
    17:00 +25°C° 0 mm 2 mps 751 mmHg 49%
    18:00 +23°C° 0 mm 2 mps 751 mmHg 53%
    19:00 +20°C° 0 mm 2 mps 751 mmHg 57%
    20:00 +18°C° 0 mm 2 mps 751 mmHg 62%
    21:00 +17°C° 0 mm 2 mps 751 mmHg 65%
    22:00 +17°C° 0 mm 2 mps 751 mmHg 68%
    23:00 +16°C° 0 mm 2 mps 751 mmHg 72%

    Tomorrow, 25 August, Sunday

    Time Temperature Precipitation Wind Pressure Humidity
    00:00 +16°C° 0 mm 2 mps 751 mmHg 72%
    01:00 +15°C° 0 mm 2 mps 751 mmHg 72%
    02:00 +15°C° 0 mm 2 mps 751 mmHg 73%
    03:00 +15°C° 0 mm 2 mps 751 mmHg 73%
    04:00 +14°C° 0 mm 2 mps 751 mmHg 73%
    05:00 +14°C° 0 mm 2 mps 751 mmHg 72%
    06:00 +14°C° 0 mm 3 mps 751 mmHg 70%
    07:00 +17°C° 0 mm 3 mps 751 mmHg 69%
    08:00 +18°C° 0 mm 3 mps 751 mmHg 67%
    09:00 +20°C° 0 mm 3 mps 751 mmHg 62%
    10:00 +21°C° 0 mm 3 mps 751 mmHg 57%
    11:00 +23°C° 0 mm 4 mps 751 mmHg 53%
    12:00 +25°C° 0 mm 4 mps 751 mmHg 51%
    13:00 +26°C° 0 mm 4 mps 751 mmHg 50%
    14:00 +26°C° 0 mm 4 mps 751 mmHg 48%
    15:00 +26°C° 0 mm 4 mps 751 mmHg 51%
    16:00 +26°C° 0 mm 4 mps 750 mmHg 53%
    17:00 +26°C° 0 mm 3 mps 750 mmHg 55%
    18:00 +24°C° 0 mm 3 mps 750 mmHg 60%
    19:00 +21°C° 0 mm 3 mps 750 mmHg 65%
    20:00 +19°C° 0 mm 3 mps 750 mmHg 70%
    21:00 +18°C° 0 mm 3 mps 750 mmHg 70%
    22:00 +17°C° 0 mm 3 mps 750 mmHg 71%
    23:00 +17°C° 0 mm 3 mps 751 mmHg 71%

    Day after tomorrow, 26 August, Monday

    Time Temperature Precipitation Wind Pressure Humidity
    00:00 +16°C° 0 mm 3 mps 751 mmHg 72%
    01:00 +16°C° 0 mm 3 mps 751 mmHg 74%
    02:00 +14°C° 0 mm 3 mps 750 mmHg 76%
    03:00 +14°C° 0 mm 3 mps 750 mmHg 77%
    04:00 +14°C° 0 mm 3 mps 750 mmHg 78%
    05:00 +14°C° 0 mm 3 mps 750 mmHg 80%
    06:00 +16°C° 0 mm 3 mps 750 mmHg 77%
    07:00 +18°C° 0 mm 3 mps 750 mmHg 75%
    08:00 +19°C° 0 mm 4 mps 750 mmHg 72%
    09:00 +21°C° 0 mm 4 mps 750 mmHg 67%
    10:00 +23°C° 0 mm 4 mps 750 mmHg 62%
    11:00 +26°C° 0 mm 4 mps 751 mmHg 56%
    12:00 +27°C° 0 mm 4 mps 750 mmHg 53%
    13:00 +27°C° 0 mm 4 mps 750 mmHg 50%
    14:00 +28°C° 0 mm 4 mps 750 mmHg 48%
    15:00 +28°C° 0 mm 4 mps 750 mmHg 50%
    16:00 +28°C° 0 mm 4 mps 749 mmHg 53%
    17:00 +27°C° 0 mm 3 mps 749 mmHg 56%
    18:00 +25°C° 0 mm 3 mps 749 mmHg 63%
    19:00 +24°C° 0 mm 3 mps 748 mmHg 69%
    20:00 +21°C° 0 mm 3 mps 748 mmHg 75%
    21:00 +20°C° 0 mm 3 mps 748 mmHg 78%
    22:00 +19°C° 0 mm 3 mps 749 mmHg 80%
    23:00 +19°C° 0 mm 3 mps 749 mmHg 82%

    27 August, Tuesday

    Time Temperature Precipitation Wind Pressure Humidity
    00:00 +18°C° 0 mm 3 mps 749 mmHg 83%
    01:00 +18°C° 0 mm 3 mps 748 mmHg 83%
    02:00 +17°C° 0 mm 3 mps 748 mmHg 83%
    03:00 +17°C° 0 mm 3 mps 748 mmHg 83%
    04:00 +17°C° 0 mm 3 mps 748 mmHg 83%
    05:00 +16°C° 0 mm 3 mps 748 mmHg 83%
    06:00 +18°C° 0 mm 3 mps 748 mmHg 79%
    07:00 +19°C° 0 mm 3 mps 748 mmHg 75%
    08:00 +20°C° 0 mm 3 mps 748 mmHg 70%
    09:00 +22°C° 0 mm 3 mps 748 mmHg 65%
    10:00 +25°C° 0 mm 3 mps 749 mmHg 59%
    11:00 +27°C° 0 mm 3 mps 749 mmHg 53%
    12:00 +28°C° 0 mm 3 mps 748 mmHg 51%
    13:00 +28°C° 0 mm 3 mps 748 mmHg 48%
    14:00 +29°C° 0 mm 3 mps 748 mmHg 46%
    15:00 +29°C° 0 mm 2 mps 748 mmHg 48%
    16:00 +29°C° 0 mm 2 mps 748 mmHg 49%
    17:00 +28°C° 0 mm 2 mps 748 mmHg 51%
    18:00 +26°C° 0 mm 2 mps 748 mmHg 56%
    19:00 +24°C° 0 mm 2 mps 748 mmHg 62%
    20:00 +21°C° 0 mm 2 mps 748 mmHg 67%
    21:00 +20°C° 0 mm 2 mps 748 mmHg 70%
    22:00 +20°C° 0 mm 2 mps 748 mmHg 72%
    23:00 +19°C° 0 mm 2 mps 748 mmHg 75%

    28 August, Wednesday

    Time Temperature Precipitation Wind Pressure Humidity
    00:00 +18°C° 0 mm 2 mps 748 mmHg 76%
    01:00 +18°C° 0 mm 2 mps 748 mmHg 78%
    02:00 +18°C° 0 mm 2 mps 748 mmHg 79%
    03:00 +17°C° 0 mm 2 mps 748 mmHg 79%
    04:00 +17°C° 0 mm 2 mps 748 mmHg 80%
    05:00 +17°C° 0 mm 2 mps 748 mmHg 80%
    06:00 +18°C° 0 mm 2 mps 748 mmHg 76%
    07:00 +19°C° 0 mm 3 mps 748 mmHg 72%
    08:00 +21°C° 0 mm 3 mps 748 mmHg 69%
    09:00 +24°C° 0 mm 3 mps 748 mmHg 63%
    10:00 +25°C° 0 mm 3 mps 748 mmHg 57%
    11:00 +27°C° 0 mm 3 mps 748 mmHg 51%
    12:00 +28°C° 0 mm 3 mps 748 mmHg 49%
    13:00 +29°C° 0 mm 3 mps 748 mmHg 47%
    14:00 +29°C° 0 mm 3 mps 747 mmHg 45%
    15:00 +29°C° 0 mm 3 mps 747 mmHg 47%
    16:00 +28°C° 0 mm 3 mps 747 mmHg 49%
    17:00 +28°C° 0 mm 3 mps 746 mmHg 51%
    18:00 +26°C° 0 mm 3 mps 746 mmHg 57%
    19:00 +24°C° 0 mm 3 mps 746 mmHg 62%
    20:00 +21°C° 0 mm 3 mps 746 mmHg 67%
    21:00 +20°C° 0 mm 3 mps 746 mmHg 70%
    22:00 +19°C° 0 mm 3 mps 746 mmHg 73%
    23:00 +19°C° 0 mm 3 mps 746 mmHg 77%

    29 August, Thursday

    Time Temperature Precipitation Wind Pressure Humidity
    00:00 +18°C° 0 mm 3 mps 746 mmHg 79%
    01:00 +18°C° 0 mm 3 mps 746 mmHg 81%
    02:00 +17°C° 0 mm 3 mps 746 mmHg 83%
    03:00 +17°C° 0 mm 3 mps 746 mmHg 83%
    04:00 +16°C° 0 mm 3 mps 746 mmHg 83%
    05:00 +16°C° 0 mm 3 mps 746 mmHg 82%
    06:00 +17°C° 0 mm 3 mps 746 mmHg 77%
    07:00 +18°C° 0 mm 4 mps 746 mmHg 71%
    08:00 +20°C° 0 mm 4 mps 746 mmHg 65%
    09:00 +21°C° 0 mm 4 mps 746 mmHg 61%
    10:00 +23°C° 0 mm 5 mps 746 mmHg 56%
    11:00 +26°C° 0 mm 5 mps 746 mmHg 52%
    12:00 +26°C° 0 mm 5 mps 746 mmHg 51%
    13:00 +27°C° 0 mm 5 mps 746 mmHg 50%
    14:00 +27°C° 0 mm 5 mps 746 mmHg 49%
    15:00 +27°C° 0 mm 5 mps 746 mmHg 52%
    16:00 +26°C° 0 mm 5 mps 745 mmHg 54%
    17:00 +26°C° 0 mm 5 mps 745 mmHg 57%
    18:00 +23°C° 0 mm 5 mps 745 mmHg 60%
    19:00 +22°C° 0 mm 5 mps 745 mmHg 64%
    20:00 +20°C° 0 mm 5 mps 745 mmHg 67%
    21:00 +20°C° 0 mm 5 mps 746 mmHg 66%
    22:00 +19°C° 0 mm 5 mps 746 mmHg 64%
    23:00 +19°C° 0 mm 5 mps 746 mmHg 63%
    Show more